WetterOnline ( http://www.wetteronline.de )

Wetter aktuell Hittbergen

Aktuelles Wetter: Boizenburg (46m)

6-stündlich | Neueste Meldungen
Ortszeit Temperatur Wetter
Do, 19.07. 14:00 25.3° C wolkig
Do, 19.07. 8:00 16.5° C wolkenlos
Do, 19.07. 2:00 15.1° C wolkig
Mi, 18.07. 20:00 23.2° C wolkenlos
Mi, 18.07. 14:00 23.6° C bewölkt
Mi, 18.07. 8:00 17.0° C wolkig
Mi, 18.07. 2:00 19.7° C bedeckt
Di, 17.07. 20:00 28.6° C wolkenlos
Ortszeit Temperatur Wetter
Do, 19.07. 19:00 24.6° C wolkig
Do, 19.07. 18:30 25.0° C bedeckt
Do, 19.07. 18:20 25.0° C bedeckt
Do, 19.07. 18:10 24.9° C bedeckt
Do, 19.07. 18:00 23.9° C bewölkt
Do, 19.07. 17:50 23.9° C bewölkt
Do, 19.07. 17:30 24.1° C bedeckt
Do, 19.07. 17:00 24.9° C bedeckt
Do, 19.07. 16:30 25.9° C bewölkt
Do, 19.07. 16:00 24.1° C wolkig
Do, 19.07. 15:30 24.7° C bedeckt
Ortszeit Relative Feuchte Sichtweite
Do, 19.07. 14:00 37% 35 km
Do, 19.07. 8:00 74% 30 km
Do, 19.07. 2:00 82% 40 km
Mi, 18.07. 20:00 43% 60 km
Mi, 18.07. 14:00 51% 40 km
Mi, 18.07. 8:00 83% 13 km
Mi, 18.07. 2:00 67% 16 km
Di, 17.07. 20:00 32% 45 km
Ortszeit Relative Feuchte Sichtweite
Do, 19.07. 19:00 38% 35 km
Do, 19.07. 18:30 40% 35 km
Do, 19.07. 18:20 40% -
Do, 19.07. 18:10 40% -
Do, 19.07. 18:00 42% 35 km
Do, 19.07. 17:50 42% -
Do, 19.07. 17:30 39% 35 km
Do, 19.07. 17:00 40% 35 km
Do, 19.07. 16:30 37% 26 km
Do, 19.07. 16:00 40% 40 km
Do, 19.07. 15:30 37% 50 km
Ortszeit Niederschlagsmenge Niederschlagsart
Do, 19.07. 14:00 0.0 l/m2 in 6 Std. -
Do, 19.07. 8:00 0.0 l/m2 in 12 Std. -
Do, 19.07. 2:00 0.0 l/m2 in 6 Std. -
Mi, 18.07. 20:00 0.0 l/m2 in 12 Std. -
Mi, 18.07. 14:00 0.0 l/m2 in 6 Std. -
Mi, 18.07. 8:00 0.0 l/m2 in 12 Std. -
Mi, 18.07. 2:00 0.0 l/m2 in 6 Std. -
Di, 17.07. 20:00 0.0 l/m2 in 12 Std. -
Ortszeit Niederschlagsmenge Niederschlagsart
Do, 19.07. 19:00 keine Meldung -
Do, 19.07. 18:30 0.0 l/m2 in 1 Std. -
Do, 19.07. 18:20 keine Meldung -
Do, 19.07. 18:10 keine Meldung -
Do, 19.07. 18:00 0.0 l/m2 in 1 Std. -
Do, 19.07. 17:50 keine Meldung -
Do, 19.07. 17:30 0.0 l/m2 in 1 Std. -
Do, 19.07. 17:00 0.0 l/m2 in 1 Std. -
Do, 19.07. 16:30 0.0 l/m2 in 1 Std. -
Do, 19.07. 16:00 0.0 l/m2 in 1 Std. -
Do, 19.07. 15:30 0.0 l/m2 in 1 Std. -
Ortszeit Stärke Spitze Richtung
km/h Bft. km/h Grad Sektor
Do, 19.07. 14:00 13 3 43 320° NW
Do, 19.07. 8:00 7 2 22 340° N
Do, 19.07. 2:00 7 2 29 290° W
Mi, 18.07. 20:00 13 3 35 310° NW
Mi, 18.07. 14:00 20 4 35 250° W
Mi, 18.07. 8:00 13 3 28 260° W
Mi, 18.07. 2:00 9 2 31 310° NW
Di, 17.07. 20:00 11 2 29 310° NW
Ortszeit Stärke Spitze Richtung
km/h Bft. km/h Grad Sektor
Do, 19.07. 19:00 11 2 28 290° W
Do, 19.07. 18:30 11 2 25 330° NW
Do, 19.07. 18:20 11 2 - 330° NW
Do, 19.07. 18:10 13 3 - 330° NW
Do, 19.07. 18:00 9 2 30 320° NW
Do, 19.07. 17:50 9 2 - 320° NW
Do, 19.07. 17:30 11 2 29 310° NW
Do, 19.07. 17:00 11 2 29 320° NW
Do, 19.07. 16:30 15 3 30 310° NW
Do, 19.07. 16:00 11 2 32 290° W
Do, 19.07. 15:30 9 2 31 330° NW
Ortszeit Untergrenze Bedeckung Gattung
total tief tief mittel hoch
Do, 19.07. 14:00 1500 m 6/8 - - - -
Do, 19.07. 8:00 - 0/8 0/8 - - -
Do, 19.07. 2:00 9000 m 8/8 0/8 - - -
Mi, 18.07. 20:00 - 0/8 0/8 - - -
Mi, 18.07. 14:00 1140 m 7/8 7/8 - - -
Mi, 18.07. 8:00 390 m 7/8 2/8 - - -
Mi, 18.07. 2:00 3600 m 8/8 8/8 - - -
Di, 17.07. 20:00 - 0/8 0/8 - - -
Ortszeit Bedeckungsgrad in Achtel und Wolkenuntergrenze
Do, 19.07. 19:00 8
Do, 19.07. 18:30 8(1800m)
Do, 19.07. 18:20 8(1800m)
Do, 19.07. 18:10 8(1800m)
Do, 19.07. 18:00 7(1800m) 7(2400m)
Do, 19.07. 17:50 7(1800m) 7(2400m)
Do, 19.07. 17:30 9 9 9
Do, 19.07. 17:00 8(1800m)
Do, 19.07. 16:30 7(1800m) 9 9
Do, 19.07. 16:00 6(1800m) 9 9
Do, 19.07. 15:30 9 9 9
Ortszeit Luftdruck NN (hPa) Tendenz (hPa in 3 Std.)
Do, 19.07. 14:00 1018 - 0,4
Do, 19.07. 8:00 1019 + 0,6
Do, 19.07. 2:00 1018 + 0,7
Mi, 18.07. 20:00 1017 + 0,2
Mi, 18.07. 14:00 1016 0,0
Mi, 18.07. 8:00 1016 + 0,9
Mi, 18.07. 2:00 1015 + 1,1
Di, 17.07. 20:00 1012 0,0
Ortszeit Luftdruck NN (hPa) Tendenz (hPa in 3 Std.)
Do, 19.07. 19:00 1017 - 0,7
Do, 19.07. 18:30 1017 - 0,8
Do, 19.07. 18:20 1017 keine Meldung
Do, 19.07. 18:10 1017 keine Meldung
Do, 19.07. 18:00 1017 - 0,7
Do, 19.07. 17:50 1017 keine Meldung
Do, 19.07. 17:30 1017 - 0,9
Do, 19.07. 17:00 1018 - 0,8
Do, 19.07. 16:30 1018 - 0,8
Do, 19.07. 16:00 1018 - 0,6
Do, 19.07. 15:30 1018 - 0,7
Ortszeit Schneehöhe (cm)
Do, 19.07. 14:00 -
Do, 19.07. 8:00 -
Do, 19.07. 2:00 -
Mi, 18.07. 20:00 -
Mi, 18.07. 14:00 -
Mi, 18.07. 8:00 -
Mi, 18.07. 2:00 -
Di, 17.07. 20:00 -
Ortszeit Schneehöhe (cm)
Do, 19.07. 19:00 -
Do, 19.07. 18:30 -
Do, 19.07. 18:20 -
Do, 19.07. 18:10 -
Do, 19.07. 18:00 -
Do, 19.07. 17:50 -
Do, 19.07. 17:30 -
Do, 19.07. 17:00 -
Do, 19.07. 16:30 -
Do, 19.07. 16:00 -
Do, 19.07. 15:30 -
Link zu dieser Seite / Seite empfehlen

Das Wetter in ...